Accueil
METAR-TAF:

METAR-TAF

Aéroports :

Comté de Franklin, Vermont, États-Unis

latitude: 44-56-25N, longitude: 073-05-51W, altitude: 69 m

Observation

Le bulletin a été fait il y a 21 minutes, à 12:55 UTC
Vent 5 kt de sud
Température 12°C
Humidité 58%
Pression 1028 hPa
Visibilité: 16.1 km
Nuages fragmentés à une hauteur de 11000 ft

METAR: KFSO 251255Z AUTO 18005KT 10SM BKN110 12/04 A3037 RMK AO2 T01210037

Heure: 09:16 (13:16 UTC)


TAF: absent

Observations et prévisions météorologiques de plus de 4000 aéroports (messages METAR et TAF).

Les stations disponibles sont représentées par des disques jaunes et rouges sur la carte.

Passer la souris dessus pour voir le nom de la station.

Cliquer dessus pour voir les observations et prévisions météorologiques.

Pour changer de carte: cliquez sur les boutons verts avec une croix noire pour zoomer, sur le bouton vert avec un tiret pour effectuer un zoom arrière, ou sur les flèches vertes pour les cartes adjacentes.


METAR-TAF: